Total_Precipitation_Accumulation
1.40 1.60 2.07 2.69 3.10 3.57 3.98 4.00 3.72 3.73 3.76 3.81 3.65 3.84 4.07 4.34 4.59 4.49 4.36 4.26 4.18 4.14 4.15 4.17 4.16 4.02 3.92 3.78 3.60 3.51 3.39 3.14 2.94 2.89 2.57 2.19 1.92 1.83 1.79 1.83 1.90 1.90 1.91
1.51 1.78 2.19 2.50 2.91 3.25 3.44 3.75 3.88 3.91 3.68 4.00 4.30 4.54 4.86 4.92 5.20 5.48 5.53 5.34 5.07 4.85 4.62 4.60 4.38 4.08 3.90 3.76 3.57 3.43 3.27 2.98 2.85 2.81 2.79 2.36 1.99 1.65 1.46 1.55 1.55 1.61 1.78
1.78 2.08 2.35 2.48 2.71 3.09 3.37 3.68 3.99 4.10 4.00 4.42 4.92 5.36 5.72 5.68 5.69 5.72 5.73 5.67 5.25 4.88 4.64 4.39 4.24 4.06 3.89 3.72 3.60 3.47 3.33 3.06 2.86 2.75 2.92 2.76 2.39 1.93 1.69 1.54 1.54 1.62 1.70
1.65 1.92 2.21 2.59 2.61 2.89 3.19 3.43 3.79 4.19 4.49 4.91 5.39 5.94 6.24 6.39 6.22 5.88 5.62 5.27 4.87 4.50 4.11 3.91 3.94 3.81 3.61 3.39 3.14 3.01 2.97 2.90 2.76 2.69 2.59 2.58 2.51 2.32 2.04 1.80 1.79 1.83 1.79
1.62 1.78 1.90 2.21 2.42 2.67 2.96 3.25 3.58 3.98 4.61 5.38 5.96 6.36 6.68 6.63 6.14 5.62 5.04 4.58 4.23 3.93 3.65 3.48 3.56 3.45 3.22 3.01 2.75 2.53 2.43 2.40 2.45 2.48 2.45 2.39 2.35 2.18 2.06 1.91 1.83 1.81 1.77
1.71 1.83 1.92 2.17 2.32 2.44 2.71 3.05 3.46 3.77 4.28 5.01 5.66 5.96 6.17 6.10 5.67 5.04 4.50 4.10 3.68 3.33 3.01 2.73 2.67 2.60 2.45 2.34 2.29 2.21 2.16 2.13 2.19 2.22 2.16 2.15 2.15 2.11 2.10 2.01 1.84 1.82 1.88
1.90 1.84 1.82 1.94 2.14 2.26 2.45 2.74 3.08 3.49 3.81 4.21 4.82 4.94 4.99 4.79 4.39 4.17 3.88 3.44 3.04 2.69 2.37 2.14 2.04 2.01 2.00 1.97 1.98 1.96 1.94 1.89 1.91 1.91 1.90 1.89 1.85 1.87 2.02 2.15 2.08 1.96 1.83
1.72 1.72 1.65 1.84 2.05 2.25 2.41 2.57 2.81 3.21 3.53 3.64 3.76 3.70 3.60 3.53 3.37 3.16 2.82 2.52 2.29 2.13 1.99 1.84 1.73 1.69 1.74 1.75 1.82 1.76 1.67 1.61 1.61 1.56 1.61 1.65 1.60 1.71 1.91 2.05 2.23 2.22 1.97
1.50 1.55 1.56 1.65 1.83 2.13 2.29 2.42 2.54 2.70 2.71 2.69 2.69 2.67 2.66 2.54 2.50 2.41 2.14 1.95 1.81 1.68 1.62 1.59 1.55 1.48 1.43 1.40 1.39 1.36 1.36 1.41 1.43 1.38 1.38 1.39 1.40 1.51 1.66 1.80 2.06 2.27 2.17
1.50 1.51 1.56 1.63 1.60 1.70 1.85 2.00 2.13 2.27 2.24 2.10 1.99 2.03 2.02 1.92 1.81 1.67 1.56 1.47 1.39 1.32 1.32 1.27 1.24 1.27 1.28 1.21 1.15 1.12 1.15 1.18 1.25 1.29 1.25 1.24 1.23 1.29 1.36 1.47 1.66 1.93 2.09
1.56 1.47 1.51 1.53 1.46 1.41 1.40 1.48 1.60 1.78 1.85 1.78 1.73 1.75 1.69 1.62 1.50 1.40 1.31 1.24 1.18 1.14 1.10 1.08 1.05 1.04 1.03 1.01 1.06 1.05 1.06 1.13 1.16 1.16 1.17 1.17 1.20 1.26 1.23 1.29 1.42 1.60 1.81
1.54 1.43 1.41 1.46 1.42 1.35 1.25 1.29 1.35 1.32 1.38 1.41 1.53 1.64 1.54 1.47 1.39 1.32 1.24 1.18 1.07 1.03 1.03 1.03 0.97 0.87 0.85 0.92 1.00 1.01 1.00 1.09 1.09 1.09 1.15 1.15 1.18 1.22 1.22 1.28 1.36 1.50 1.71
1.72 1.54 1.39 1.36 1.38 1.29 1.23 1.22 1.25 1.17 1.14 1.14 1.20 1.33 1.37 1.34 1.31 1.16 1.08 1.04 1.01 1.00 0.98 0.92 0.90 0.87 0.82 0.84 0.84 0.86 0.87 0.93 1.01 1.04 1.10 1.14 1.18 1.17 1.20 1.26 1.32 1.45 1.58
1.71 1.50 1.40 1.34 1.26 1.20 1.18 1.16 1.10 0.99 0.98 1.02 1.12 1.16 1.20 1.22 1.22 1.11 1.01 0.97 0.94 0.91 0.88 0.80 0.78 0.83 0.81 0.74 0.69 0.71 0.76 0.84 0.87 0.89 1.00 1.06 1.09 1.09 1.17 1.23 1.31 1.40 1.56
1.64 1.59 1.45 1.33 1.16 1.06 1.04 1.02 0.98 0.93 0.90 0.96 1.08 1.16 1.10 1.06 1.12 1.16 1.05 0.93 0.88 0.82 0.81 0.75 0.70 0.74 0.73 0.66 0.67 0.68 0.69 0.75 0.76 0.78 0.86 0.92 0.93 0.92 0.99 1.01 1.14 1.31 1.48
1.84 1.79 1.65 1.47 1.27 1.12 1.05 1.04 1.00 0.88 0.82 0.88 1.03 1.09 1.09 1.07 1.09 1.14 1.08 0.99 0.92 0.89 0.84 0.79 0.74 0.73 0.66 0.66 0.62 0.60 0.63 0.71 0.78 0.85 0.86 0.81 0.81 0.77 0.74 0.80 0.90 1.09 1.32
1.89 1.80 1.71 1.54 1.35 1.27 1.15 1.13 1.06 0.92 0.90 0.92 0.95 1.03 1.08 1.11 1.13 1.11 1.07 1.03 1.02 1.01 0.91 0.80 0.77 0.74 0.66 0.57 0.48 0.48 0.56 0.73 0.85 0.91 0.88 0.75 0.71 0.82 0.83 0.84 0.85 0.96 1.10
2.06 1.98 1.76 1.58 1.37 1.22 1.13 1.07 1.01 0.94 0.97 0.96 0.92 0.93 0.94 0.95 0.95 1.01 1.06 1.04 1.01 0.96 0.89 0.82 0.76 0.71 0.54 0.48 0.45 0.48 0.54 0.67 0.72 0.74 0.80 0.87 0.89 0.83 0.85 0.85 0.96 1.05 1.14
1.96 1.90 1.72 1.59 1.46 1.27 1.15 1.06 1.02 0.98 0.92 0.89 0.86 0.81 0.76 0.78 0.80 0.88 0.99 1.06 1.02 0.92 0.84 0.76 0.73 0.69 0.58 0.52 0.50 0.53 0.59 0.65 0.60 0.56 0.60 0.66 0.72 0.72 0.79 0.90 1.08 1.14 1.25
1.46 1.43 1.38 1.34 1.28 1.15 1.07 1.06 1.04 0.96 0.87 0.79 0.72 0.67 0.69 0.72 0.74 0.80 0.91 0.96 0.99 0.88 0.73 0.65 0.66 0.64 0.62 0.55 0.48 0.47 0.51 0.59 0.57 0.59 0.65 0.63 0.57 0.61 0.73 0.93 1.16 1.31 1.36
1.21 1.14 1.13 1.17 1.13 1.03 1.01 1.04 1.00 0.92 0.76 0.65 0.62 0.63 0.68 0.72 0.71 0.80 0.89 0.87 0.81 0.79 0.71 0.66 0.64 0.58 0.50 0.44 0.37 0.38 0.43 0.51 0.58 0.64 0.71 0.72 0.61 0.57 0.64 0.84 1.06 1.23 1.28
1.25 1.15 1.10 1.06 0.98 0.94 1.01 1.03 0.95 0.77 0.63 0.61 0.64 0.68 0.68 0.64 0.64 0.78 0.86 0.78 0.76 0.74 0.72 0.70 0.64 0.54 0.43 0.36 0.31 0.28 0.30 0.36 0.55 0.70 0.70 0.70 0.66 0.62 0.69 0.84 1.01 1.14 1.33
1.19 1.14 1.04 0.95 0.85 0.80 0.87 0.90 0.77 0.57 0.53 0.59 0.68 0.69 0.65 0.72 0.74 0.72 0.72 0.72 0.73 0.64 0.58 0.59 0.55 0.51 0.45 0.38 0.29 0.25 0.26 0.32 0.47 0.63 0.68 0.64 0.61 0.71 0.92 1.04 1.14 1.29 1.51
1.00 0.91 0.86 0.81 0.72 0.65 0.63 0.62 0.51 0.49 0.55 0.64 0.67 0.64 0.67 0.78 0.78 0.69 0.59 0.56 0.56 0.52 0.49 0.50 0.48 0.49 0.48 0.39 0.32 0.33 0.33 0.37 0.45 0.58 0.71 0.75 0.77 0.93 1.14 1.28 1.38 1.48 1.56
0.81 0.73 0.70 0.67 0.56 0.51 0.48 0.42 0.39 0.44 0.55 0.58 0.62 0.63 0.64 0.69 0.75 0.66 0.51 0.46 0.40 0.33 0.33 0.37 0.37 0.43 0.42 0.31 0.29 0.31 0.35 0.40 0.46 0.55 0.73 0.88 0.92 1.04 1.20 1.33 1.40 1.45 1.46
0.68 0.65 0.60 0.55 0.48 0.46 0.43 0.40 0.37 0.40 0.52 0.56 0.54 0.50 0.53 0.56 0.58 0.58 0.50 0.33 0.20 0.15 0.14 0.15 0.20 0.24 0.25 0.22 0.21 0.24 0.30 0.36 0.46 0.62 0.89 0.97 0.96 1.01 1.11 1.23 1.32 1.31 1.28